| time (UTC) | temp F | wind direction | speed knots | gust knots | rain 1hr in | rain 24hr in | rain mn in | humidity % | barometer mb |
| 20260502220034 | 49 | 0 | 0.0 | 0.0 | 0.01 | 0.40 | 0.40 | 96 | 1012.2 |
| 20260502214530 | 50 | 0 | 0.0 | 0.0 | 0.01 | 0.40 | 0.40 | 96 | 1012.5 |
| 20260502213040 | 50 | 0 | 0.0 | 0.0 | 0.00 | 0.40 | 0.40 | 96 | 1012.5 |
| 20260502211532 | 50 | 0 | 0.0 | 0.0 | 0.00 | 0.40 | 0.40 | 95 | 1012.5 |
| 20260502210035 | 50 | 0 | 0.0 | 0.0 | 0.00 | 0.39 | 0.39 | 95 | 1012.6 |
| 20260502204530 | 50 | 0 | 0.0 | 0.0 | 0.00 | 0.39 | 0.39 | 95 | 1012.8 |
| 20260502203036 | 50 | 0 | 0.0 | 0.9 | 0.00 | 0.39 | 0.39 | 95 | 1012.9 |
| 20260502201532 | 50 | 0 | 0.0 | 0.0 | 0.02 | 0.39 | 0.39 | 95 | 1012.9 |
| 20260502200034 | 50 | 86 | 0.0 | 0.9 | 0.07 | 0.39 | 0.39 | 95 | 1012.8 |
| 20260502194534 | 50 | 0 | 0.0 | 0.0 | 0.09 | 0.38 | 0.38 | 95 | 1012.7 |
| 20260502193030 | 50 | 0 | 0.0 | 0.9 | 0.13 | 0.38 | 0.38 | 94 | 1012.9 |
| 20260502191531 | 50 | 0 | 0.0 | 1.7 | 0.12 | 0.37 | 0.37 | 94 | 1012.9 |
| 20260502190034 | 50 | 60 | 0.0 | 4.3 | 0.10 | 0.32 | 0.32 | 94 | 1013.0 |
| 20260502184529 | 50 | 344 | 0.9 | 3.5 | 0.07 | 0.28 | 0.28 | 94 | 1013.1 |
| 20260502183033 | 51 | 0 | 0.0 | 2.6 | 0.07 | 0.25 | 0.25 | 95 | 1013.1 |
| 20260502181543 | 51 | 318 | 0.9 | 3.5 | 0.09 | 0.23 | 0.23 | 94 | 1012.9 |
| 20260502163032 | 54 | 267 | 1.7 | 3.5 | 0.02 | 0.03 | 0.03 | 87 | 1014.5 |
| 20260502161528 | 55 | 248 | 2.6 | 3.5 | 0.00 | 0.01 | 0.01 | 84 | 1014.5 |
| 20260502151529 | 59 | 0 | 0.0 | 0.0 | 0.00 | 0.00 | 0.00 | 69 | 1014.3 |
| 20260502123029 | 61 | 238 | 1.7 | 4.3 | 0.00 | 0.02 | 0.00 | 68 | 1016.6 |
| 20260502121531 | 61 | 164 | 1.7 | 5.2 | 0.00 | 0.02 | 0.00 | 68 | 1016.7 |
| 20260502114528 | 60 | 192 | 1.7 | 8.7 | 0.00 | 0.02 | 0.00 | 70 | 1017.2 |
| 20260502113032 | 61 | 231 | 1.7 | 6.1 | 0.00 | 0.02 | 0.00 | 71 | 1017.3 |
| 20260502111529 | 60 | 247 | 4.3 | 7.8 | 0.00 | 0.02 | 0.00 | 69 | 1017.4 |
| 20260502110030 | 59 | 248 | 2.6 | 7.8 | 0.00 | 0.02 | 0.00 | 74 | 1017.3 |
| 20260502104535 | 58 | 0 | 0.0 | 9.6 | 0.00 | 0.02 | 0.00 | 73 | 1017.5 |
| 20260502103028 | 57 | 0 | 0.0 | 5.2 | 0.00 | 0.02 | 0.00 | 76 | 1017.9 |
| 20260502101537 | 57 | 0 | 0.9 | 2.6 | 0.00 | 0.02 | 0.00 | 75 | 1017.9 |
| 20260502091532 | 56 | 139 | 1.7 | 5.2 | 0.00 | 0.02 | 0.00 | 77 | 1018.2 |
| 20260502071535 | 47 | 0 | 0.0 | 0.0 | 0.00 | 0.02 | 0.00 | 96 | 1019.1 |
| 20260502070030 | 46 | 0 | 0.0 | 0.0 | 0.00 | 0.02 | 0.00 | 95 | 1019.0 |
| 20260502064549 | 46 | 238 | 0.0 | 2.6 | 0.00 | 0.02 | 0.00 | 96 | 1019.2 |
| 20260502063035 | 46 | 0 | 0.0 | 0.0 | 0.00 | 0.02 | 0.00 | 96 | 1019.3 |
| 20260502061530 | 44 | 0 | 0.0 | 0.0 | 0.00 | 0.02 | 0.00 | 97 | 1019.2 |
| 20260502060030 | 42 | 0 | 0.0 | 0.0 | 0.00 | 0.02 | 0.00 | 96 | 1019.0 |
| 20260502054531 | 41 | 0 | 0.0 | 0.0 | 0.00 | 0.02 | 0.00 | 96 | 1018.7 |
| 20260502053029 | 43 | 0 | 0.0 | 0.0 | 0.00 | 0.01 | 0.00 | 96 | 1019.0 |
| 20260502051532 | 42 | 0 | 0.0 | 0.0 | 0.00 | 0.01 | 0.00 | 96 | 1019.1 |
| 20260502050030 | 42 | 0 | 0.0 | 0.0 | 0.00 | 0.01 | 0.00 | 96 | 1019.1 |
| 20260502044538 | 42 | 0 | 0.0 | 0.0 | 0.00 | 0.01 | 0.00 | 96 | 1018.9 |
| 20260502043031 | 42 | 0 | 0.0 | 0.0 | 0.00 | 0.01 | 0.00 | 96 | 1019.0 |
| 20260502041534 | 43 | 0 | 0.0 | 0.0 | 0.00 | 0.01 | 0.00 | 96 | 1018.9 |
| 20260502040040 | 44 | 0 | 0.0 | 0.0 | 0.00 | 0.01 | 0.00 | 96 | 1019.2 |
| 20260502034534 | 44 | 0 | 0.0 | 0.0 | 0.00 | 0.01 | 0.00 | 96 | 1019.4 |
| 20260502033029 | 44 | 0 | 0.0 | 0.0 | 0.00 | 0.01 | 0.00 | 96 | 1019.5 |
| 20260502031529 | 43 | 0 | 0.0 | 0.9 | 0.00 | 0.01 | 0.00 | 95 | 1019.4 |
| 20260502030030 | 42 | 0 | 0.0 | 0.9 | 0.00 | 0.01 | 0.00 | 95 | 1019.5 |
| 20260502024531 | 43 | 0 | 0.0 | 0.9 | 0.00 | 0.01 | 0.00 | 93 | 1019.6 |
| 20260502023037 | 45 | 0 | 0.0 | 2.6 | 0.00 | 0.01 | 0.00 | 95 | 1019.6 |
| 20260502021530 | 44 | 0 | 0.0 | 0.0 | 0.00 | 0.01 | 0.00 | 94 | 1019.8 |
| 20260502020032 | 44 | 0 | 0.0 | 0.0 | 0.00 | 0.01 | 0.00 | 94 | 1019.8 |
| 20260502014542 | 45 | 0 | 0.0 | 0.0 | 0.00 | 0.01 | 0.00 | 93 | 1019.9 |
| 20260502013032 | 46 | 0 | 0.0 | 0.0 | 0.00 | 0.01 | 0.00 | 93 | 1019.9 |
| 20260502011530 | 46 | 0 | 0.0 | 0.0 | 0.00 | 0.01 | 0.00 | 93 | 1020.1 |
| 20260502010034 | 47 | 0 | 0.0 | 0.0 | 0.00 | 0.01 | 0.00 | 93 | 1020.2 |
| 20260502004534 | 47 | 0 | 0.0 | 0.0 | 0.00 | 0.01 | 0.00 | 93 | 1020.5 |
| 20260502003032 | 47 | 0 | 0.0 | 0.0 | 0.00 | 0.01 | 0.00 | 93 | 1020.6 |
| 20260502001549 | 47 | 0 | 0.0 | 0.0 | 0.00 | 0.01 | 0.00 | 93 | 1020.6 |
| 20260502000029 | 47 | 0 | 0.0 | 0.0 | 0.00 | 0.01 | 0.00 | 93 | 1020.7 |
| 20260501234531 | 47 | 0 | 0.0 | 0.0 | 0.00 | 0.01 | 0.00 | 91 | 1021.0 |
| 20260501233031 | 48 | 0 | 0.0 | 0.0 | 0.00 | 0.01 | 0.00 | 92 | 1020.9 |
| 20260501231529 | 48 | 256 | 0.0 | 0.0 | 0.00 | 0.01 | 0.00 | 92 | 1021.0 |
| 20260501230032 | 48 | 0 | 0.0 | 0.0 | 0.00 | 0.01 | 0.00 | 91 | 1020.9 |
| 20260501224530 | 48 | 0 | 0.0 | 0.9 | 0.00 | 0.01 | 0.01 | 89 | 1020.9 |
| 20260501223028 | 49 | 0 | 0.0 | 0.9 | 0.00 | 0.01 | 0.01 | 90 | 1020.8 |
| 20260501221532 | 49 | 0 | 0.0 | 0.9 | 0.00 | 0.01 | 0.01 | 92 | 1020.8 |